Location: Albany
(35.0170°S, 117.8920°E)
Time: 17:36:07
(UTC+08:00)

Explorer 11/Cluster Stage 4 - Pass Details

Date: 28 January 2021
Orbit: 467 x 1257 km, 28.8° (Epoch: 02 March)

Event Time Altitude Azimuth Distance (km) Brightness Sun altitude
Rises 11:37:43 0° 275° (W) 3,226 9.6 70.5°
Reaches altitude 10° 11:40:59 10° 291° (WNW) 2,135 8.9 70.9°
Maximum altitude 11:44:28 19° 336° (NNW) 1,456 8.5 71.2°
Drops below altitude 10° 11:47:32 10° 23° (NNE) 1,838 8.9 71.5°
Sets 11:50:06 0° 41° (NE) 2,632 9.5 71.8°
